RH
100 98 99 98 90 90 94 90 85 94 86 77 91 99 95 95 93 88 82 87 89 94 98 94 92 91 90 89 88 88 88 87 81 79 80 78 79 82
100 100 99 97 97 90 89 87 81 74 85 62 74 87 98 100 97 90 82 80 86 91 94 91 89 84 85 83 83 84 84 82 81 78 84 84 81 82
99 99 100 100 99 97 94 96 94 80 71 63 70 78 89 100 95 84 78 72 78 94 94 89 82 78 77 78 75 76 78 80 81 85 87 86 88 83
100 99 100 100 99 100 98 97 97 91 52 64 70 86 94 94 80 72 70 63 64 80 78 77 75 74 74 73 69 73 78 82 84 84 83 86 89 88
98 97 98 98 99 99 99 98 97 76 54 54 58 74 75 74 72 63 54 45 41 38 68 70 68 73 74 77 78 81 79 84 84 84 85 86 86 88
76 86 94 97 97 97 98 99 99 98 89 55 51 85 78 69 63 48 38 34 24 20 57 66 72 76 77 78 80 83 86 84 85 87 87 89 91 90
65 61 77 68 82 89 95 97 97 97 97 95 55 56 65 65 56 46 38 33 25 21 24 56 67 72 76 78 80 84 79 80 81 84 88 90 91 91
75 64 65 65 85 79 63 63 86 96 97 96 66 55 55 69 58 44 37 36 36 27 24 26 44 56 58 64 66 63 62 50 76 82 84 79 84 87
94 91 88 80 71 77 82 75 80 83 63 82 87 69 53 52 53 48 41 36 30 25 26 28 32 40 43 50 50 44 46 62 69 72 78 81 82 80
92 95 94 90 88 97 88 83 74 78 86 51 46 52 52 49 49 49 46 39 36 39 30 34 37 44 50 49 45 44 62 71 73 75 77 77 77 77
86 75 94 94 99 100 97 94 92 94 84 98 91 58 49 45 47 46 44 40 47 50 52 56 61 55 56 57 52 50 63 72 74 74 76 76 78 78
90 91 94 89 88 96 98 90 93 81 91 94 96 92 98 94 95 62 50 58 76 76 73 74 74 66 66 65 61 57 56 62 75 76 77 78 78 76
79 85 83 84 82 83 89 97 99 96 86 93 87 95 97 99 96 100 96 90 76 79 78 65 87 88 93 89 54 52 50 48 47 48 54 68 76 78
98 96 78 78 82 78 75 77 87 98 96 97 98 94 89 94 95 97 98 99 97 97 94 97 96 94 94 90 79 69 66 63 61 61 59 58 61 65
68 75 74 76 88 90 96 96 98 96 92 92 98 96 94 84 85 96 96 96 95 95 97 97 96 96 96 94 91 84 83 79 70 69 67 66 63 59
56 52 42 57 64 72 81 72 71 83 96 96 88 90 98 96 94 91 94 96 96 96 96 95 96 96 96 98 99 97 96 92 74 78 76 71 66 62
80 81 76 69 63 58 44 36 39 50 58 82 95 96 93 96 98 98 98 97 96 96 93 92 96 97 97 97 100 98 98 98 88 82 81 83 79 73
80 87 98 100 96 91 84 76 65 48 44 60 70 82 95 96 95 90 92 95 95 95 94 94 95 95 95 93 98 97 96 96 95 89 88 91 90 82
52 47 51 70 84 82 88 92 88 76 70 67 44 56 73 80 73 94 95 96 98 93 92 90 95 96 94 92 75 72 87 96 97 100 98 100 100 96
42 44 42 39 48 64 84 92 87 76 85 84 76 71 64 56 56 58 62 81 88 90 90 82 83 91 95 89 86 74 72 81 81 86 90 84 84 89
69 67 73 74 69 49 51 64 96 98 94 93 90 90 79 68 66 63 63 77 68 74 77 73 67 78 92 96 99 90 70 67 91 97 93 96 96 92
58 56 57 61 60 70 67 54 63 83 72 72 95 84 80 97 91 79 72 69 66 72 88 84 79 82 83 89 93 92 82 72 63 68 88 95 97 95
65 66 60 60 63 66 69 81 74 64 77 88 69 60 80 85 93 96 96 91 89 89 87 86 84 82 82 84 98 100 99 93 98 92 82 71 79 79
Wind_Speed
4 5 7 7 4 7 6 17 5 5 8 18 15 31 32 34 35 35 33 31 29 21 16 16 18 17 17 17 15 14 12 11 10 9 8 7 5 4
10 7 6 7 5 3 7 15 4 4 4 5 17 30 35 32 32 32 32 30 28 23 20 21 18 17 14 15 13 11 10 10 10 10 8 7 6 5
5 4 6 8 11 8 10 7 9 1 3 5 13 12 34 32 30 30 29 28 26 22 20 18 17 16 16 14 13 11 10 9 8 8 8 7 7 7
5 4 5 4 2 9 10 9 10 6 3 8 13 18 22 32 32 30 29 27 26 20 19 19 18 17 15 14 12 11 10 10 9 8 7 7 7 7
9 8 4 3 4 7 10 12 11 8 9 9 10 16 17 31 30 26 27 26 25 22 18 18 17 16 15 14 13 13 13 11 10 9 8 8 7 8
13 11 8 5 3 1 4 9 13 14 11 9 11 14 17 23 27 29 25 25 24 23 21 19 18 17 15 15 14 12 12 11 10 9 8 9 10 9
14 14 15 11 9 5 2 1 4 8 10 13 14 13 16 20 27 26 22 25 23 24 24 23 22 20 18 15 13 12 12 10 10 11 10 10 11 10
10 11 12 10 9 10 6 4 4 6 8 7 9 12 18 24 26 27 23 16 8 25 24 24 24 24 21 19 17 15 14 12 11 11 11 10 11 12
9 7 6 6 7 7 6 6 7 2 5 10 13 14 14 21 26 27 27 22 18 12 27 21 21 21 20 18 17 16 15 13 13 13 13 13 13 14
11 10 8 7 5 5 6 5 3 4 3 0 4 10 13 17 23 22 21 19 14 11 24 12 17 19 19 17 17 17 16 15 15 15 15 16 16 17
9 8 9 9 9 8 7 8 10 9 4 1 2 3 4 8 17 20 19 21 9 9 17 6 7 12 16 17 18 18 18 18 17 18 19 19 20 21
8 9 8 8 8 9 9 11 10 12 12 14 13 9 8 9 8 13 16 17 10 6 15 13 13 12 5 12 19 21 23 22 20 20 21 22 21 22
8 8 8 9 9 10 11 12 12 13 15 15 14 14 15 12 16 15 16 18 17 14 8 19 12 15 10 4 6 7 8 10 12 12 13 15 17 20
8 8 10 11 13 14 15 14 14 14 15 15 18 18 16 17 20 17 16 13 20 22 18 18 12 19 17 10 11 14 17 19 21 23 23 21 20 20
10 11 11 12 12 11 13 13 13 13 14 10 13 16 21 20 17 18 20 18 17 18 14 14 15 15 17 14 9 14 16 20 22 22 21 19 21 22
8 9 9 12 14 16 15 16 14 12 9 8 15 12 15 17 18 18 17 16 16 17 18 18 19 20 20 20 20 18 17 15 13 16 20 23 24 25
13 14 13 13 13 13 14 16 20 20 17 13 8 6 8 3 7 14 16 17 16 12 17 18 18 20 22 22 20 20 21 22 26 27 27 28 28 29
10 13 8 4 7 12 15 17 15 12 14 14 14 14 11 7 8 11 11 9 8 8 9 9 10 11 12 13 15 18 19 21 22 23 23 25 25 26
11 7 6 6 7 9 11 12 14 16 17 15 12 13 12 14 16 16 15 15 14 14 14 15 13 12 9 6 15 15 16 15 16 21 23 23 24 26
6 5 5 5 7 9 11 13 13 7 12 16 16 16 15 16 18 20 20 18 18 16 16 16 15 15 13 10 10 14 13 14 17 18 19 20 23 21
7 8 9 10 12 13 14 13 10 9 9 8 8 14 18 17 18 20 19 16 15 14 15 14 16 13 12 11 9 13 17 16 16 17 16 16 15 17
9 11 13 14 14 14 16 17 16 16 15 13 11 11 9 15 21 21 20 17 17 14 12 11 11 11 12 13 17 18 22 23 23 21 19 18 14 7
10 13 14 15 16 16 17 18 20 20 20 19 18 16 12 12 11 9 10 12 13 13 13 14 14 13 13 14 14 16 15 17 18 21 26 26 25 27
Wind_Direction
229 201 200 246 258 220 234 174 213 155 200 198 182 192 183 184 184 183 183 175 166 166 166 168 167 167 168 164 169 167 164 163 154 153 159 153 158 143
192 188 200 208 226 203 226 201 211 98 181 161 197 194 195 193 190 188 188 185 177 167 176 181 179 174 177 173 174 170 173 179 167 165 173 162 183 189
114 202 196 204 207 187 201 204 221 198 111 184 199 208 198 201 194 195 195 194 182 172 177 184 188 183 180 184 181 183 181 189 183 183 186 182 193 206
113 133 171 176 177 203 189 185 211 209 195 151 190 200 201 202 204 193 194 195 192 181 187 191 192 192 188 189 191 190 190 205 201 198 210 199 191 213
69 75 54 84 191 190 196 188 185 189 201 180 186 197 186 197 199 196 196 194 194 193 195 199 197 196 193 194 199 201 196 212 211 216 226 229 223 219
55 51 38 38 65 131 163 183 194 195 198 175 182 182 182 186 196 191 193 200 199 200 196 202 199 200 199 203 207 209 210 207 220 225 238 249 248 239
64 65 56 44 40 21 340 230 199 192 194 189 180 169 177 173 187 192 197 203 206 208 204 200 198 201 202 208 213 213 220 230 238 246 241 246 253 256
57 58 61 70 71 56 44 11 308 235 206 194 193 193 190 191 187 190 191 191 203 210 211 211 208 207 208 210 215 224 234 242 240 251 246 245 249 248
36 32 43 38 40 51 67 93 81 44 245 231 221 214 209 199 191 187 194 199 205 203 206 215 212 213 213 220 228 235 247 243 243 240 240 248 246 256
36 28 12 360 360 353 334 343 29 97 85 140 215 213 224 216 207 201 198 196 197 196 200 196 212 222 232 232 235 241 238 240 244 246 250 253 258 269
10 3 3 4 360 340 330 320 306 294 281 78 46 213 197 189 212 206 199 193 189 195 193 180 201 218 233 242 243 243 243 247 250 252 254 256 262 270
20 11 3 343 328 329 322 305 300 288 289 282 269 253 230 219 209 214 206 196 198 203 228 220 222 210 240 251 249 248 249 247 250 253 256 260 263 261
341 340 339 339 329 311 306 314 326 299 284 265 267 266 250 236 229 225 244 238 219 225 215 209 225 219 220 226 213 218 249 262 247 245 264 262 259 257
341 326 311 313 313 307 298 298 294 304 323 285 255 253 247 250 254 245 227 230 242 243 244 222 218 211 214 230 236 251 252 258 262 266 271 264 262 258
301 293 292 294 307 309 324 331 324 317 307 326 271 253 257 262 257 257 260 261 251 238 230 221 234 243 233 229 241 252 259 262 265 268 263 260 262 260
310 306 302 293 283 284 289 293 309 319 340 317 278 296 264 255 251 253 252 254 249 246 244 240 245 247 246 249 250 253 251 240 262 260 260 265 266 264
269 268 271 280 293 303 303 295 290 291 292 301 292 295 265 274 232 232 236 236 229 224 240 246 246 251 255 254 250 250 246 247 255 263 267 265 268 270
66 67 62 354 318 300 301 300 300 297 286 284 269 266 268 257 248 256 257 261 261 258 250 242 258 282 282 269 248 249 247 251 255 261 264 261 266 271
54 46 29 16 344 309 302 306 300 294 289 281 279 267 256 247 256 257 250 250 249 248 246 252 252 244 247 253 260 254 261 266 268 262 262 259 261 266
12 357 342 315 305 318 319 300 293 312 285 272 271 272 271 267 260 258 255 245 239 235 235 240 236 231 231 245 248 263 258 273 272 277 280 282 279 277
329 323 316 306 297 292 294 302 307 286 289 295 290 270 267 265 261 260 253 236 234 233 236 239 249 263 264 264 256 260 270 274 269 273 273 265 268 275
317 315 302 299 298 297 284 286 286 282 292 290 281 277 289 268 262 257 234 240 256 255 250 256 256 262 264 259 263 270 279 284 279 274 259 260 266 253
300 311 304 303 292 290 290 278 278 277 272 279 279 275 272 265 269 263 251 241 248 258 267 275 278 272 265 262 265 273 273 278 276 275 272 272 275 276